Weather observations for the past three days for
MCAS New River
Imperial (Metric)
Date Time (edt) Wind (mph) Vis. (mi.) Weather Sky Cond. Temperature (ºF) Relative Humidity Wind Chill (°F) Heat Index (°F) Pressure Precipitation (in)
Air Dwpt 6 hour altimeter (in) sea level (mb) 1 hr 3 hr 6 hr
Max. Min.
15 08:56 SW 7 10.00 Mostly Cloudy SCT050 BKN170 84.9 78.1 80% 97 30.04 1017.4
15 07:56 SW 7 10.00 Partly Cloudy FEW060 SCT160 80.1 79 80.1 78.1 97% 87 30.04 1017.4
15 06:56 SW 5 8.00 Fair CLR 79 78.1 97% 83 30.02 1016.8
15 05:56 SW 5 8.00 Fair CLR 78.1 78.1 100% 81 30 1016.3
15 04:56 SW 3 8.00 A Few Clouds FEW004 79 78.1 97% 83 30 1016.0
15 03:56 SW 5 8.00 A Few Clouds FEW005 79 78.1 97% 83 29.99 1015.8
15 02:56 SW 5 10.00 Fair CLR 79 78.1 97% 83 30.01 1016.3
15 01:56 SW 6 10.00 Fair CLR 80.1 78.1 84.9 79 94% 86 30.03 1017.1
15 00:56 SW 6 10.00 Fair CLR 80.1 78.1 94% 86 30.04 1017.6
14 23:56 SW 5 10.00 Fair CLR 81 78.1 91% 89 30.05 1017.7
14 22:56 S 7 10.00 Fair CLR 81 78.1 91% 89 30.04 1017.6
14 21:56 SW 6 10.00 Fair CLR 81 79 94% 89 30.04 1017.5
14 20:56 S 6 10.00 Fair CLR 82.9 78.1 85% 93 30.03 1017.2
14 19:56 S 6 10.00 Fair CLR 84.9 77 95 84.9 77% 95 30.03 1017.2
14 18:56 SW 6 10.00 Fair CLR 88 75.9 68% 99 30.02 1016.8
14 17:56 S 12 10.00 Fair CLR 89.1 77 68% 102 30.01 1016.3
14 16:56 S 10 10.00 Fair CLR 91 78.1 66% 106 30.02 1016.7
14 15:56 S 9 10.00 Partly Cloudy SCT049 SCT060 91 79 68% 108 30.03 1017.2
14 14:56 Vrbl 5 10.00 A Few Clouds FEW050 93.9 75 54% 106 30.06 1018.1
14 13:56 Calm 10.00 Fair CLR 93 73.9 93 78.1 54% 103 30.07 1018.6
14 12:56 SW 7 10.00 Fair CLR 91 75.9 61% 103 30.09 1019.0
14 11:56 W 7 10.00 Fair CLR 90 75.9 63% 102 30.1 1019.6
14 10:56 W 8 10.00 Fair CLR 87.1 75.9 70% 98 30.11 1019.8
14 09:56 W 7 10.00 Fair CLR 84.9 75.9 75% 94 30.12 1020.1
14 08:56 W 8 10.00 Fair CLR 82 75.9 82% 89 30.12 1020.0
14 07:56 W 7 10.00 Fair CLR 78.1 75.9 78.1 75.9 93% 81 30.11 1019.7
14 06:56 SW 6 7.00 Fair CLR 75.9 75 97% 75 30.09 1019.3
14 05:56 W 6 9.00 Fair CLR 75.9 75 97% 75 30.09 1019.0
14 04:56 W 5 10.00 Fair CLR 75.9 75.9 100% 75 30.08 1019.0
14 03:56 W 5 10.00 Fair CLR 77 75.9 96% 78 30.09 1019.1
14 02:56 SW 7 10.00 Fair CLR 77 75.9 96% 78 30.09 1019.3
14 01:56 SW 7 10.00 Fair CLR 78.1 75.9 80.1 78.1 93% 81 30.11 1019.8
14 00:56 SW 7 10.00 Fair CLR 78.1 77 97% 81 30.12 1020.2
13 23:56 SW 6 10.00 Fair CLR 79 77 94% 83 30.13 1020.6
13 22:56 SW 6 10.00 Fair CLR 79 78.1 97% 83 30.13 1020.4
13 21:56 S 5 10.00 Fair CLR 79 78.1 97% 83 30.12 1020.1
13 20:56 S 5 10.00 Partly Cloudy SCT060 79 78.1 97% 83 30.12 1020.1
13 19:56 S 7 10.00 Mostly Cloudy BKN040 BKN080 80.1 78.1 88 78.1 94% 86 30.13 1020.5 0.21
13 18:56 SW 5 10.00 Light Rain FEW120 80.1 75.9 87% 85 30.11 1019.8
13 17:56 S 10 10.00 Thunderstorm Light Rain FEW038 SCT090 BKN110 79 75.9 90% 83 30.12 1020.0 0.21
13 16:56 W 5 10.00 Thunderstorm Light Rain CLR 84.9 75.9 75% 94 30.1 1019.6
13 15:56 Vrbl 5 10.00 Thunderstorm Light Rain FEW028 SCT039 87.1 77 72% 99 30.12 1020.2
13 14:56 SW 8 10.00 Light Rain FEW026 84 75.9 77% 93 30.12 1020.3
13 13:56 S 10 10.00 Light Rain SCT024 84.9 75.9 86 75.9 75% 94 30.13 1020.5
13 12:56 S 9 10.00 Light Rain CLR 84 75.9 77% 93 30.15 1021.3
13 11:56 S 8 10.00 Light Rain FEW016 82 77 85% 90 30.16 1021.6
13 10:56 S 6 10.00 Light Rain SCT050 81 75.9 85% 87 30.17 1021.8
13 09:56 Vrbl 7 10.00 Light Rain CLR 79 75 88% 83 30.16 1021.6
13 08:56 S 6 10.00 Light Rain CLR 78.1 75.9 93% 81 30.17 1021.7
13 07:56 S 3 10.00 Light Rain FEW025 SCT037 BKN047 75.9 75 78.1 75.9 97% 75 30.16 1021.4 0.02 0.12
13 06:56 S 5 7.00 Light Rain SCT029 BKN049 OVC100 75.9 75 97% 75 30.15 1021.2 0.05
13 05:56 Calm 10.00 Light Rain FEW046 SCT070 77 75.9 96% 78 30.13 1020.5
13 04:56 SE 8 10.00 Light Rain SCT013 BKN019 OVC060 78.1 75.9 93% 81 30.12 1020.0 0.05
13 03:56 S 5 10.00 Light Rain SCT060 77 75.9 96% 78 30.11 1019.7
13 02:56 Calm 10.00 Light Rain FEW040 SCT095 BKN110 77 75.9 96% 78 30.12 1020.2 0.05
13 01:56 S 8 10.00 Light Rain FEW090 77 75 79 75.9 94% 78 30.13 1020.5 0.01 0.06
13 00:56 S 8 8.00 Light Rain FEW022 SCT030 BKN038 79 77 94% 83 30.13 1020.4 0.02
12 23:56 S 3 10.00 Light Rain BKN025 OVC085 79 77 94% 83 30.13 1020.5
12 22:56 S 3 10.00 Light Rain BKN025 OVC075 79 77 94% 83 30.14 1020.7 0.03 0.03
12 21:56 S 3 8.00 Overcast BKN010 OVC030 78.1 75.9 93% 81 30.13 1020.7
12 20:56 S 6 10.00 Overcast BKN010 OVC030 77 75 94% 78 30.12 1020.3
12 19:56 S 8 G 23 3.00 Thunderstorm Rain Fog/Mist BKN006 OVC015 77 75 88 75.9 94% 78 30.13 1020.3 0.04 0.09
12 18:56 S 7 7.00 Drizzle BKN008 OVC030 77 73.9 90% 78 30.11 1019.7 0.01
12 17:56 S 9 5.00 Thunderstorm in Vicinity Fog/Mist BKN010 BKN025 OVC041 81 75 82% 87 30.09 1019.0
12 16:56 S 10 5.00 Thunderstorm in Vicinity Fog/Mist BKN010 BKN025 OVC041 80.1 75.9 87% 85 30.1 1019.4 0.02 0.04
12 15:56 S 16 G 31 10.00 Mostly Cloudy BKN020 BKN034 BKN041 82.9 73.9 74% 89 30.1 1019.4
12 14:56 S 22 G 32 7.00 Mostly Cloudy and Breezy BKN024 BKN038 BKN180 84 77 80% 94 30.09 1019.3 0.02
12 13:56 S 21 G 36 10.00 Mostly Cloudy and Breezy BKN024 BKN045 BKN180 86 75 87.1 82 70% 95 30.1 1019.3
12 12:56 S 17 G 32 10.00 Mostly Cloudy SCT020 BKN032 BKN150 84.9 75 72% 93 30.1 1019.6
12 11:56 S 21 G 33 10.00 Mostly Cloudy and Breezy FEW023 SCT030 BKN040 86 75.9 72% 96 30.1 1019.5
12 10:56 S 18 G 29 10.00 Mostly Cloudy FEW010 SCT020 BKN040 84.9 75 72% 93 30.11 1019.7
12 09:56 S 13 G 24 10.00 Rain SCT020 BKN150 82.9 75 77% 90 30.08 1018.8
Date Time (edt) Wind (mph) Vis. (mi.) Weather Sky Cond. Air Dwpt Max. Min. Relative Humidity Wind Chill (°F) Heat Index (°F) altimeter (in) sea level (mb) 1 hr 3 hr 6 hr
6 hour
Temperature (ºF) Pressure Precipitation (in)